Regional Weather Roundup
Issued by NWS

Home | Current Version | Previous Version | Graphics & Text | Print | Product List | Glossary On
Versions: 1 2 3 4 5 6 7 8 9 10 11 12 13 14 15 16 17 18 19 20 21 22 23 24 25 26 27 28 29 30 31 32 33 34 35 36 37 38 39 40 41 42 43 44 45 46 47 48 49 50
819
ASUS43 KIND 221409
RWRIN

WEATHER ROUNDUP FOR INDIANA
NATIONAL WEATHER SERVICE INDIANAPOLIS IN
900 AM EST THU FEB 22 2018

NOTE: "FAIR" INDICATES FEW OR NO CLOUDS BELOW 12,000 FEET WITH NO
SIGNIFICANT WEATHER AND/OR OBSTRUCTIONS TO VISIBILITY.

* - STATION DOES NOT REPORT WEATHER SUCH AS PRECIPITATION OR FOG.

+ - STATION NOT QUALITY CONTROLLED BY THE NATIONAL WEATHER SERVICE.
    USE DATA WITH CAUTION...ESPECIALLY DEWPOINT AND RELATIVE
    HUMIDITY OBSERVATIONS.

INZ001>003-010>013-019-020-221500-
NORTHWEST INDIANA

CITY           SKY/WX    TMP DP  RH WIND       PRES   REMARKS
GARY /AIRPORT/ CLOUDY    34  30  86 NE12G23   30.55  WCI  25
LA PORTE +     PTSUNNY   32  30  91 NE6       30.55R WCI  27
MICHIGAN CITY+ CLOUDY    32  30  93 NE5       30.56R WCI  27
MONTICELLO +   CLOUDY    34  32  91 E9        30.48R WCI  27
RENSSELAER +   PTSUNNY   34  32  93 NE6       30.51S FOG     WCI  29
VALPARAISO     CLOUDY    34  30  85 NE7       30.53R WCI  28

$$

LMZ046-743>745-221500-
SOUTHERN LAKE MICHIGAN

STATION/POSITION TIME  TEMP    WIND        PRES    WAVE
                       AIR SEA DIR/SP/G            HT
                 (UTC) (F)     (DEG/KT/KT) (MB)    (FT)
BURNS HARBOR     1340   32      50/ 15/ 17 1034.9R
MICHIGAN CITY    1340   32      30/ 15/ 17   N/A

$$

INZ004-005-014>016-021>024-221500-
NORTH CENTRAL INDIANA

CITY           SKY/WX    TMP DP  RH WIND       PRES   REMARKS
ELKHART        FAIR      34  28  80 E9        30.55R WCI  26
GOSHEN         CLOUDY    34  27  75 E10       30.54R WCI  26
LOGANSPORT +   CLOUDY    34  32  93 E12       30.49F WCI  25
PERU/GRISSOM   CLOUDY    34  34 100 E18       30.49S WCI  23
ROCHESTER +    PTSUNNY   36  34  93 E8        30.52S WCI  29
SOUTH BEND     CLOUDY    33  29  85 E5        30.56R WCI  29
WARSAW +       DRIZZLE   32  32 100 MISG      30.53R

$$

INZ006>009-017-018-025>027-221500-
NORTHEAST INDIANA

CITY           SKY/WX    TMP DP  RH WIND       PRES   REMARKS
AUBURN +       MIX PCPN  32  30  93 E12G18    30.55F WCI  23
FORT WAYNE     LGT RAIN  33  30  88 NE17      30.54R FOG     WCI  22
HUNTINGTON +   CLOUDY    32  31  96 E8        30.52F WCI  25
KENDALLVILLE + CLOUDY    31  28  90 E8G17     30.54R WCI  24

$$

INZ028-029-035-036-043>045-051>053-221500-
WEST CENTRAL INDIANA

CITY           SKY/WX    TMP DP  RH WIND       PRES   REMARKS
CRAWFORDSVL +  CLOUDY    33  33 100 NE12      30.41  WCI  25
GREENCASTLE +  CLOUDY    36  34  93 NE12      30.43F WCI  27
LAFAYETTE      CLOUDY    35  33  92 E20G25    30.46S WCI  24
TERRE HAUTE    CLOUDY    39  37  92 NE15      30.42R WCI  31

$$

INZ030>032-037>040-046>048-054>057-064-065-221500-
CENTRAL INDIANA

CITY           SKY/WX    TMP DP  RH WIND       PRES   REMARKS
ANDERSON       CLOUDY    34  32  93 N12G17    30.49R WCI  25
COLUMBUS       LGT RAIN  39 N/A N/A N10       30.47R FOG     WCI  32
INDIANAPOLIS   CLOUDY    37  35  92 NE17      30.45R WCI  27
-EAGLE CREEK   LGT RAIN  37  33  85 NE13G20   30.45S WCI  29
KOKOMO +       CLOUDY    34  32  92 NE15      30.50S WCI  24
MARION +       CLOUDY    32  31  97 NE13G20   30.51F FOG     WCI  23
MT COMFORT *+  CLOUDY    36  36 100 NE17      30.46F WCI  25
SHELBYVILLE    LGT RAIN  39  36  89 N14       30.45R FOG     WCI  31
ZIONSVILLE +   CLOUDY    33  32  98 NE15G21   30.48R WCI  22

$$

INZ033-034-041-042-049-050-058-059-221500-
EAST CENTRAL INDIANA

CITY           SKY/WX    TMP DP  RH WIND       PRES   REMARKS
MUNCIE         LGT RAIN  35  33  92 NE13      30.49R FOG     WCI  26
RICHMOND +     CLOUDY    36  36 100 N7        30.44R WCI  30

$$

INZ060-061-067>069-081>083-085>088-221500-
SOUTHWEST INDIANA

CITY           SKY/WX    TMP DP  RH WIND       PRES   REMARKS
EVANSVILLE     CLOUDY    43  42  97 NE12      30.36R
HUNTINGBURG +  CLOUDY    42  41  96 NE10      30.37R
WASHINGTON +   CLOUDY    41  40  94 NE10G16   30.38R

$$

INZ062-063-066-070>080-084-089>092-221500-
SOUTH CENTRAL AND SOUTHEAST INDIANA

CITY           SKY/WX    TMP DP  RH WIND       PRES   REMARKS
BATESVILLE +   CLOUDY    39  39 100 MISG      30.44R
BEDFORD +      DRIZZLE   39  37  93 N8        30.40R WCI  34
BLOOMINGTON    CLOUDY    41  39  93 NE12      30.41S FOG
FRENCH LICK *+ CLOUDY    39 N/A N/A NE12      30.37F WCI  32
MADISON *+     CLOUDY    41  37  87 CALM      30.44R
NORTH VERNON + CLOUDY    39  37  93 CALM      30.44R
SEYMOUR +      CLOUDY    43  39  87 NW8       30.44R

$$





USA.gov is the U.S. government's official web portal to all federal, state and local government web resources and services.